User: anonymous   Login
Location: Unspecified
(0.0000°N, 0.0000°E)
Time: 10:54:50
(UTC+00:00)
Language:

TET - Orbit

View from above orbital plane
View from above orbital plane
View from above satellite
View from above satellite

Ground track
Ground track

The orbit data is extracted from the following two-line orbital elements,

1 38710U 12039D   19196.80648819 +.00002049 +00000-0 +38940-4 0  9997
2 38710 097.6186 200.0437 0001941 039.5798 320.5594 15.49574209391579
Epoch (UTC): 15 July 2019 19:21:20
Eccentricity: 0.0001941
inclination: 97.6186°
perigee height: 416 km
apogee height: 419 km
right ascension of ascending node: 200.0437°
argument of perigee: 39.5798°
revolutions per day: 15.49574209
mean anomaly at epoch: 320.5594°
orbit number at epoch: 39157

The dashed part of the orbit path shows where the satellite is in the earth's shadow,  

DLR